Weather History for KEED - August, 2013

Change the Weather History Date:

Saturday, August 31, 2013

  Actual Average Record
Temperature  
Mean Temperature 92 °F -  
Max Temperature 99 °F 105 °F 117 °F (1950)
Min Temperature 84 °F 79 °F 62 °F (1957)
Cooling Degree Days 26    
Growing Degree Days 42 (Base 50)    
Moisture  
Dew Point 72 °F    
Average Humidity 55    
Maximum Humidity 72    
Minimum Humidity 35    
Precipitation  
Precipitation 0.04 in - - ()
Sea Level Pressure  
Sea Level Pressure 29.79 in    
Wind  
Wind Speed 3 mph (South)    
Max Wind Speed 15 mph    
Max Gust Speed 29 mph    
Visibility 10 miles    
Events Rain , Thunderstorm    
Averages and records for this station are not official NWS values.
T = Trace of Precipitation, MM = Missing Value Source: NWS Daily Summary

Daily Weather History Graph

Daily Weather History Graph

Search for Another Location

Airport or City:

Trip Planner

Search our weather history database for the weather conditions in past years. The results will help you decide how hot, cold, wet, or windy it might be!

Date:

Astronomy

Aug. 31, 2013 Rise Set
Actual Time 6:10 AM PDT 7:05 PM PDT
Civil Twilight 5:45 AM PDT 7:31 PM PDT
Nautical Twilight 5:14 AM PDT 8:02 PM PDT
Astronomical Twilight 4:43 AM PDT 8:33 PM PDT
Moon 1:50 AM PDT (8/31) 4:00 PM PDT (8/31)
Length of Visible Light 13h 46m
Length of Day
12h 54m
Waning Crescent, 20% of the Moon is Illuminated
Aug 31
Waning Crescent
Sep 5
New
Sep 12
First Quarter
Sep 19
Full
Sep 26
Last Quarter

Hourly Weather History & Observations

Time (PDT) Temp. Heat Index Dew Point Humidity Pressure Visibility Wind Dir Wind Speed Gust Speed Precip Events Conditions
12:56 AM 88.0 °F 94.7 °F 72.0 °F 59% 29.82 in 10.0 mi Calm Calm - N/A   Clear
1:56 AM 87.1 °F 95.4 °F 73.9 °F 65% 29.81 in 10.0 mi Calm Calm - N/A   Clear
2:56 AM 86.0 °F 93.0 °F 73.0 °F 65% 29.81 in 10.0 mi Calm Calm - N/A   Clear
3:56 AM 84.9 °F 93.3 °F 75.0 °F 72% 29.81 in 10.0 mi Calm Calm - N/A   Scattered Clouds
4:56 AM 84.9 °F 92.1 °F 73.9 °F 69% 29.81 in 10.0 mi Calm Calm - N/A   Clear
5:56 AM 84.0 °F 90.2 °F 73.0 °F 69% 29.81 in 10.0 mi SSE 4.6 mph - N/A   Clear
6:56 AM 84.9 °F 91.4 °F 73.0 °F 67% 29.83 in 10.0 mi Calm Calm - N/A   Clear
7:56 AM 86.0 °F 92.2 °F 72.0 °F 63% 29.84 in 10.0 mi Calm Calm - N/A   Clear
8:56 AM 87.1 °F 95.4 °F 73.9 °F 65% 29.85 in 10.0 mi Calm Calm - N/A   Clear
9:56 AM 90.0 °F 96.9 °F 72.0 °F 55% 29.86 in 10.0 mi East 4.6 mph - N/A   Clear
10:56 AM 93.0 °F 99.0 °F 70.0 °F 47% 29.84 in 10.0 mi Variable 3.5 mph - N/A   Clear
11:56 AM 95.0 °F 100.7 °F 69.1 °F 43% 29.81 in 10.0 mi South 10.4 mph - N/A   Partly Cloudy
12:56 PM 97.0 °F 102.2 °F 68.0 °F 39% 29.78 in 10.0 mi SW 5.8 mph - N/A   Mostly Cloudy
1:56 PM 99.0 °F 105.5 °F 69.1 °F 38% 29.75 in 10.0 mi ENE 8.1 mph - N/A   Scattered Clouds
2:56 PM 97.0 °F 103.5 °F 70.0 °F 41% 29.73 in 10.0 mi SE 15.0 mph - N/A Thunderstorm Thunderstorm
3:14 PM 93.2 °F 98.8 °F 69.8 °F 46% 29.83 in 10.0 mi SSE 13.8 mph - N/A   Partly Cloudy
3:39 PM 93.2 °F 98.8 °F 69.8 °F 46% 29.82 in 10.0 mi South 15.0 mph 28.8 mph N/A Thunderstorm Thunderstorm
3:56 PM 98.1 °F 101.8 °F 66.0 °F 35% 29.71 in 10.0 mi South 8.1 mph 20.7 mph N/A   Partly Cloudy
4:04 PM 96.8 °F 100.7 °F 66.2 °F 37% 29.81 in 10.0 mi SSE 9.2 mph - N/A Thunderstorm Partly Cloudy
4:27 PM 93.2 °F 98.8 °F 69.8 °F 46% 29.81 in 10.0 mi South 8.1 mph - N/A   Clear
4:46 PM 89.6 °F 102.2 °F 77.0 °F 66% 29.81 in 10.0 mi South 4.6 mph - 0.04 in Rain , Thunderstorm Light Rain
4:56 PM 93.0 °F 104.6 °F 75.0 °F 56% 29.71 in 10.0 mi SE 4.6 mph - 0.04 in   Mostly Cloudy
5:56 PM 93.0 °F 100.7 °F 72.0 °F 50% 29.71 in 10.0 mi NW 5.8 mph - N/A   Clear
6:56 PM 93.0 °F 100.7 °F 72.0 °F 50% 29.71 in 10.0 mi Calm Calm - N/A   Clear
7:56 PM 90.0 °F 99.0 °F 73.9 °F 59% 29.73 in 10.0 mi SSE 3.5 mph - N/A   Clear
8:56 PM 90.0 °F 100.2 °F 75.0 °F 61% 29.75 in 10.0 mi Calm Calm - N/A   Mostly Cloudy
9:56 PM 89.1 °F 98.0 °F 73.9 °F 61% 29.75 in 10.0 mi West 3.5 mph - N/A   Scattered Clouds
10:56 PM 88.0 °F 98.5 °F 75.9 °F 67% 29.73 in 10.0 mi NW 5.8 mph - N/A   Clear
11:56 PM 88.0 °F 96.5 °F 73.9 °F 63% 29.73 in 10.0 mi Calm Calm - N/A   Mostly Cloudy